Time,TemperatureF,DewpointF,PressureIn,WindDirection,WindDirectionDegrees,WindSpeedMPH,WindSpeedGustMPH,Humidity,HourlyPrecipIn,Conditions,Clouds,dailyrainin,SoftwareType,DateUTC
2013-01-05 00:01:00,27.8,16.3,29.85,WSW,240,1.9,4.0,58,0.00,,,0.00,WSDL version 420,2013-01-05 05:01:00,
2013-01-05 00:02:00,27.6,16.2,29.85,SSW,203,1.1,4.0,58,0.00,,,0.00,WSDL version 420,2013-01-05 05:02:00,
2013-01-05 00:05:00,27.6,16.2,29.85,ESE,120,2.5,3.4,58,0.00,,,0.00,WSDL version 420,2013-01-05 05:05:00,
2013-01-05 00:11:00,27.9,16.3,29.85,WNW,298,3.7,10.3,57,0.00,,,0.00,WSDL version 420,2013-01-05 05:11:00,
2013-01-05 00:15:00,27.9,16.4,29.85,WSW,240,1.2,10.3,58,0.00,,,0.00,WSDL version 420,2013-01-05 05:15:00,
2013-01-05 00:21:00,28.1,16.3,29.85,SSE,150,0.7,4.3,57,0.00,,,0.00,WSDL version 420,2013-01-05 05:21:00,
2013-01-05 00:27:00,28.0,16.2,29.85,SE,143,3.2,5.6,57,0.00,,,0.00,WSDL version 420,2013-01-05 05:27:00,
2013-01-05 00:33:00,27.8,16.0,29.85,SSE,158,3.2,5.6,57,0.00,,,0.00,WSDL version 420,2013-01-05 05:33:00,
2013-01-05 00:39:00,27.9,16.1,29.85,West,259,1.8,7.6,57,0.00,,,0.00,WSDL version 420,2013-01-05 05:39:00,
2013-01-05 00:45:00,27.8,16.0,29.85,SE,143,4.9,6.3,57,0.00,,,0.00,WSDL version 420,2013-01-05 05:45:00,
2013-01-05 00:51:00,27.6,15.8,29.85,South,173,0.9,6.3,57,0.00,,,0.00,WSDL version 420,2013-01-05 05:51:00,
2013-01-05 00:57:00,27.7,16.0,29.85,SSW,210,1.0,6.0,57,0.00,,,0.00,WSDL version 420,2013-01-05 05:57:00,
2013-01-05 01:03:00,27.5,15.7,29.85,SSW,210,2.3,5.4,57,0.00,,,0.00,WSDL version 420,2013-01-05 06:03:00,
2013-01-05 01:09:00,27.6,15.8,29.85,SSE,165,3.0,7.8,57,0.00,,,0.00,WSDL version 420,2013-01-05 06:09:00,
2013-01-05 01:15:00,27.6,15.8,29.85,South,174,4.3,7.8,57,0.00,,,0.00,WSDL version 420,2013-01-05 06:15:00,
2013-01-05 01:21:00,27.4,15.8,29.88,SE,135,3.1,6.3,57,0.00,,,0.00,WSDL version 420,2013-01-05 06:21:00,
2013-01-05 01:27:00,27.9,16.1,29.88,West,263,1.9,7.6,57,0.00,,,0.00,WSDL version 420,2013-01-05 06:27:00,
2013-01-05 01:33:00,27.8,16.0,29.88,SE,128,3.5,5.4,57,0.00,,,0.00,WSDL version 420,2013-01-05 06:33:00,
2013-01-05 01:39:00,27.6,15.8,29.88,NNE,30,2.5,5.4,57,0.00,,,0.00,WSDL version 420,2013-01-05 06:39:00,
2013-01-05 01:45:00,27.5,15.8,29.88,ESE,113,0.6,4.0,58,0.00,,,0.00,WSDL version 420,2013-01-05 06:45:00,
2013-01-05 01:51:00,27.1,15.7,29.88,NNW,330,1.2,2.9,58,0.00,,,0.00,WSDL version 420,2013-01-05 06:51:00,
2013-01-05 01:57:00,27.0,15.6,29.88,South,191,0.8,3.4,58,0.00,,,0.00,WSDL version 420,2013-01-05 06:57:00,
2013-01-05 02:03:00,26.5,15.1,29.88,SSE,152,1.6,2.0,58,0.00,,,0.00,WSDL version 420,2013-01-05 07:03:00,
2013-01-05 02:09:00,26.3,15.3,29.88,South,180,2.6,4.3,59,0.00,,,0.00,WSDL version 420,2013-01-05 07:09:00,
2013-01-05 02:15:00,26.5,15.5,29.88,SSW,203,2.3,4.3,59,0.00,,,0.00,WSDL version 420,2013-01-05 07:15:00,
2013-01-05 02:21:00,26.2,15.2,29.88,South,188,2.3,3.1,59,0.00,,,0.00,WSDL version 420,2013-01-05 07:21:00,
2013-01-05 02:28:00,26.2,15.2,29.88,SSW,203,0.0,2.9,59,0.00,,,0.00,WSDL version 420,2013-01-05 07:28:00,
2013-01-05 02:34:00,26.4,15.3,29.88,NNW,338,0.3,3.4,59,0.00,,,0.00,WSDL version 420,2013-01-05 07:34:00,
2013-01-05 02:40:00,26.4,15.6,29.91,South,180,1.5,3.4,59,0.00,,,0.00,WSDL version 420,2013-01-05 07:40:00,
2013-01-05 02:46:00,26.4,15.7,29.91,NNW,345,0.0,2.9,60,0.00,,,0.00,WSDL version 420,2013-01-05 07:46:00,
2013-01-05 02:52:00,26.4,15.7,29.91,NW,326,0.0,1.6,60,0.00,,,0.00,WSDL version 420,2013-01-05 07:52:00,
2013-01-05 02:58:00,26.2,15.6,29.91,SSW,203,0.0,0.0,60,0.00,,,0.00,WSDL version 420,2013-01-05 07:58:00,
2013-01-05 03:04:00,26.6,15.9,29.91,South,188,1.0,3.1,60,0.00,,,0.00,WSDL version 420,2013-01-05 08:04:00,
2013-01-05 03:10:00,26.5,16.2,29.91,NNW,338,0.0,3.1,61,0.00,,,0.00,WSDL version 420,2013-01-05 08:10:00,
2013-01-05 03:16:00,26.4,16.1,29.91,WNW,300,0.6,4.0,61,0.00,,,0.00,WSDL version 420,2013-01-05 08:16:00,
2013-01-05 03:22:00,26.5,16.1,29.91,West,263,0.0,4.0,61,0.00,,,0.00,WSDL version 420,2013-01-05 08:22:00,
2013-01-05 03:28:00,26.8,16.5,29.91,WNW,287,1.8,3.1,61,0.00,,,0.00,WSDL version 420,2013-01-05 08:28:00,
2013-01-05 03:34:00,27.0,16.7,29.91,SW,233,0.0,2.5,61,0.00,,,0.00,WSDL version 420,2013-01-05 08:34:00,
2013-01-05 03:40:00,27.0,16.7,29.91,East,101,1.0,2.0,61,0.00,,,0.00,WSDL version 420,2013-01-05 08:40:00,
2013-01-05 03:46:00,27.3,17.2,29.91,NW,304,4.6,6.0,62,0.00,,,0.00,WSDL version 420,2013-01-05 08:46:00,
2013-01-05 03:52:00,27.8,17.7,29.91,WSW,248,1.7,6.0,62,0.00,,,0.00,WSDL version 420,2013-01-05 08:52:00,
2013-01-05 03:58:00,27.6,17.5,29.91,West,270,0.0,2.5,62,0.00,,,0.00,WSDL version 420,2013-01-05 08:58:00,
2013-01-05 04:04:00,27.6,17.6,29.91,WNW,300,2.5,3.1,62,0.00,,,0.00,WSDL version 420,2013-01-05 09:04:00,
2013-01-05 04:10:00,28.1,18.0,29.91,SW,218,1.8,3.6,62,0.00,,,0.00,WSDL version 420,2013-01-05 09:10:00,
2013-01-05 04:16:00,27.9,17.9,29.91,ENE,68,0.0,3.6,62,0.00,,,0.00,WSDL version 420,2013-01-05 09:16:00,
2013-01-05 04:22:00,27.8,17.9,29.91,East,101,1.1,3.1,62,0.00,,,0.00,WSDL version 420,2013-01-05 09:22:00,
2013-01-05 04:28:00,27.4,17.6,29.91,ENE,60,1.6,2.5,63,0.00,,,0.00,WSDL version 420,2013-01-05 09:28:00,
2013-01-05 04:34:00,27.7,17.8,29.91,South,173,3.6,3.8,63,0.00,,,0.00,WSDL version 420,2013-01-05 09:34:00,
2013-01-05 04:40:00,27.8,17.9,29.91,ESE,113,1.0,3.8,62,0.00,,,0.00,WSDL version 420,2013-01-05 09:40:00,
2013-01-05 04:46:00,27.7,17.6,29.91,ENE,75,0.4,3.4,62,0.00,,,0.00,WSDL version 420,2013-01-05 09:46:00,
2013-01-05 04:52:00,27.3,17.3,29.94,NNE,23,0.0,3.4,62,0.00,,,0.00,WSDL version 420,2013-01-05 09:52:00,
2013-01-05 04:58:00,27.4,17.6,29.94,NNE,15,1.0,3.1,62,0.00,,,0.00,WSDL version 420,2013-01-05 09:58:00,
2013-01-05 05:04:00,27.1,17.2,29.94,NW,308,0.5,2.9,63,0.00,,,0.00,WSDL version 420,2013-01-05 10:04:00,
2013-01-05 05:10:00,27.3,17.4,29.94,South,180,0.0,1.6,62,0.00,,,0.00,WSDL version 420,2013-01-05 10:10:00,
2013-01-05 05:17:00,27.0,17.3,29.94,SE,143,0.3,0.9,63,0.00,,,0.00,WSDL version 420,2013-01-05 10:17:00,
2013-01-05 05:23:00,27.0,17.3,29.94,East,90,0.0,0.9,63,0.00,,,0.00,WSDL version 420,2013-01-05 10:23:00,
2013-01-05 05:29:00,26.9,17.3,29.94,SSE,158,0.4,2.7,64,0.00,,,0.00,WSDL version 420,2013-01-05 10:29:00,
2013-01-05 05:35:00,27.0,17.6,29.94,SE,124,2.3,3.1,64,0.00,,,0.00,WSDL version 420,2013-01-05 10:35:00,
2013-01-05 05:41:00,27.0,17.7,29.97,SE,135,0.4,3.1,64,0.00,,,0.00,WSDL version 420,2013-01-05 10:41:00,
2013-01-05 05:47:00,26.9,17.6,29.97,WNW,293,0.3,1.3,65,0.00,,,0.00,WSDL version 420,2013-01-05 10:47:00,
2013-01-05 05:53:00,26.7,17.7,29.97,NNW,345,0.0,0.9,65,0.00,,,0.00,WSDL version 420,2013-01-05 10:53:00,
2013-01-05 05:59:00,26.8,17.8,29.97,WSW,240,0.8,3.1,65,0.00,,,0.00,WSDL version 420,2013-01-05 10:59:00,
2013-01-05 06:05:00,26.7,17.6,29.97,NW,315,0.0,3.1,65,0.00,,,0.00,WSDL version 420,2013-01-05 11:05:00,
2013-01-05 06:11:00,26.5,17.5,29.97,West,270,0.0,2.5,65,0.00,,,0.00,WSDL version 420,2013-01-05 11:11:00,
2013-01-05 06:17:00,26.3,17.3,29.97,SW,234,0.0,0.0,65,0.00,,,0.00,WSDL version 420,2013-01-05 11:17:00,
2013-01-05 06:23:00,26.2,17.4,30.00,WNW,293,0.0,2.5,66,-99.99,,,-99.99,WSDL version 420,2013-01-05 11:23:00,
2013-01-05 06:29:00,26.2,17.5,30.00,ESE,113,1.0,2.5,66,0.00,,,0.00,WSDL version 420,2013-01-05 11:29:00,
2013-01-05 06:35:00,26.1,17.4,30.00,NW,315,0.0,3.8,66,0.00,,,0.00,WSDL version 420,2013-01-05 11:35:00,
2013-01-05 06:41:00,26.1,17.7,30.00,NE,45,0.0,2.7,67,0.00,,,0.00,WSDL version 420,2013-01-05 11:41:00,
2013-01-05 06:47:00,25.9,17.5,30.00,North,349,0.0,2.7,67,0.00,,,0.00,WSDL version 420,2013-01-05 11:47:00,
2013-01-05 06:53:00,26.1,17.7,30.00,NNE,30,0.0,4.9,67,0.00,,,0.00,WSDL version 420,2013-01-05 11:53:00,
2013-01-05 06:59:00,26.1,17.7,30.00,WSW,242,2.3,3.8,67,0.00,,,0.00,WSDL version 420,2013-01-05 11:59:00,
2013-01-05 07:05:00,26.3,17.9,30.00,West,278,0.0,3.8,67,0.00,,,0.00,WSDL version 420,2013-01-05 12:05:00,
2013-01-05 07:12:00,26.1,17.7,30.00,SSW,195,0.4,1.3,67,0.00,,,0.00,WSDL version 420,2013-01-05 12:12:00,
2013-01-05 07:18:00,26.1,17.8,30.00,SSW,195,0.0,1.3,68,-99.99,,,-99.99,WSDL version 420,2013-01-05 12:18:00,
2013-01-05 07:24:00,25.9,17.5,30.03,WSW,248,0.0,0.0,67,0.00,,,0.00,WSDL version 420,2013-01-05 12:24:00,
2013-01-05 07:30:00,26.1,17.8,30.03,SE,128,0.9,1.3,67,0.00,,,0.00,WSDL version 420,2013-01-05 12:30:00,
2013-01-05 07:36:00,26.1,18.0,30.03,North,8,0.0,1.3,68,0.00,,,0.00,WSDL version 420,2013-01-05 12:36:00,
2013-01-05 07:42:00,26.2,18.1,30.03,South,180,0.0,2.0,68,0.00,,,0.00,WSDL version 420,2013-01-05 12:42:00,
2013-01-05 07:48:00,26.5,18.3,30.03,NW,315,0.0,4.3,67,0.00,,,0.00,WSDL version 420,2013-01-05 12:48:00,
2013-01-05 07:54:00,27.0,18.5,30.03,South,188,3.1,4.0,67,0.00,,,0.00,WSDL version 420,2013-01-05 12:54:00,
2013-01-05 08:00:00,27.4,18.9,30.03,WNW,300,0.0,4.0,67,0.00,,,0.00,WSDL version 420,2013-01-05 13:00:00,
2013-01-05 08:06:00,27.7,19.2,30.06,ESE,120,0.7,3.1,67,0.00,,,0.00,WSDL version 420,2013-01-05 13:06:00,
2013-01-05 08:12:00,28.4,19.6,30.06,SW,233,0.7,3.6,66,0.00,,,0.00,WSDL version 420,2013-01-05 13:12:00,
2013-01-05 08:18:00,28.8,19.7,30.06,ESE,120,1.0,3.8,65,0.00,,,0.00,WSDL version 420,2013-01-05 13:18:00,
2013-01-05 08:24:00,29.0,19.9,30.06,NNE,28,3.1,3.8,65,0.00,,,0.00,WSDL version 420,2013-01-05 13:24:00,
2013-01-05 08:30:00,29.4,20.1,30.06,WNW,293,0.0,3.8,65,0.00,,,0.00,WSDL version 420,2013-01-05 13:30:00,
2013-01-05 08:36:00,29.5,20.3,30.09,ESE,120,3.4,3.4,65,0.00,,,0.00,WSDL version 420,2013-01-05 13:36:00,
2013-01-05 08:42:00,29.7,20.5,30.09,East,90,0.0,3.4,65,0.00,,,0.00,WSDL version 420,2013-01-05 13:42:00,
2013-01-05 08:48:00,30.3,20.9,30.09,SSE,158,1.6,4.3,64,0.00,,,0.00,WSDL version 420,2013-01-05 13:48:00,
2013-01-05 08:54:00,31.2,21.5,30.09,East,101,1.3,2.9,63,0.00,,,0.00,WSDL version 420,2013-01-05 13:54:00,
2013-01-05 09:00:00,32.4,21.0,30.09,SSW,203,1.6,3.4,62,0.00,,,0.00,WSDL version 420,2013-01-05 14:00:00,
2013-01-05 09:06:00,33.4,21.6,30.09,SW,225,1.1,3.8,61,0.00,,,0.00,WSDL version 420,2013-01-05 14:06:00,
2013-01-05 09:13:00,34.2,21.7,30.09,SSW,203,0.0,2.2,60,0.00,,,0.00,WSDL version 420,2013-01-05 14:13:00,
2013-01-05 09:19:00,34.5,22.3,30.09,WSW,240,1.6,2.7,61,0.00,,,0.00,WSDL version 420,2013-01-05 14:19:00,
2013-01-05 09:25:00,35.1,22.2,30.09,SSW,210,2.0,2.9,58,0.00,,,0.00,WSDL version 420,2013-01-05 14:25:00,
2013-01-05 09:31:00,35.4,22.2,30.09,SSW,195,2.1,3.4,58,0.00,,,0.00,WSDL version 420,2013-01-05 14:31:00,
2013-01-05 09:37:00,35.7,21.8,30.09,SSE,162,2.9,3.4,56,0.00,,,0.00,WSDL version 420,2013-01-05 14:37:00,
2013-01-05 09:43:00,35.9,21.5,30.09,SE,143,4.0,4.9,55,0.00,,,0.00,WSDL version 420,2013-01-05 14:43:00,
2013-01-05 09:49:00,36.0,21.4,30.09,SE,141,2.5,4.9,55,0.00,,,0.00,WSDL version 420,2013-01-05 14:49:00,
2013-01-05 09:55:00,36.1,21.6,30.12,South,180,1.3,4.3,56,0.00,,,0.00,WSDL version 420,2013-01-05 14:55:00,
2013-01-05 10:01:00,36.3,21.8,30.12,SE,143,3.5,4.3,55,0.00,,,0.00,WSDL version 420,2013-01-05 15:01:00,
2013-01-05 10:07:00,37.2,22.3,30.12,SE,135,2.5,3.8,54,0.00,,,0.00,WSDL version 420,2013-01-05 15:07:00,
2013-01-05 10:13:00,37.4,22.6,30.12,ESE,118,2.9,3.8,55,0.00,,,0.00,WSDL version 420,2013-01-05 15:13:00,
2013-01-05 10:19:00,37.8,22.4,30.12,SW,219,3.2,4.0,53,0.00,,,0.00,WSDL version 420,2013-01-05 15:19:00,
2013-01-05 10:25:00,38.2,22.6,30.12,ESE,120,2.4,4.0,53,0.00,,,0.00,WSDL version 420,2013-01-05 15:25:00,
2013-01-05 10:31:00,38.5,22.4,30.12,South,173,4.6,6.3,52,0.00,,,0.00,WSDL version 420,2013-01-05 15:31:00,
2013-01-05 10:37:00,38.8,22.8,30.15,WSW,255,2.4,7.2,52,0.00,,,0.00,WSDL version 420,2013-01-05 15:37:00,
2013-01-05 10:43:00,39.1,23.0,30.15,NW,304,3.6,4.9,51,0.00,,,0.00,WSDL version 420,2013-01-05 15:43:00,
2013-01-05 10:49:00,39.5,23.1,30.15,SSW,203,2.2,4.9,51,0.00,,,0.00,WSDL version 420,2013-01-05 15:49:00,
2013-01-05 10:55:00,39.9,23.4,30.12,South,173,4.1,5.4,52,0.00,,,0.00,WSDL version 420,2013-01-05 15:55:00,
2013-01-05 11:01:00,40.1,23.4,30.12,SSW,195,0.9,6.0,50,0.00,,,0.00,WSDL version 420,2013-01-05 16:01:00,
2013-01-05 11:07:00,40.5,23.3,30.15,ESE,105,6.3,6.5,50,0.00,,,0.00,WSDL version 420,2013-01-05 16:07:00,
2013-01-05 11:13:00,40.7,23.8,30.15,ENE,75,1.8,6.5,51,0.00,,,0.00,WSDL version 420,2013-01-05 16:13:00,
2013-01-05 11:19:00,40.7,23.5,30.15,SSW,203,3.8,4.3,50,0.00,,,0.00,WSDL version 420,2013-01-05 16:19:00,
2013-01-05 11:26:00,40.7,23.5,30.15,SE,135,3.0,7.2,50,0.00,,,0.00,WSDL version 420,2013-01-05 16:26:00,
2013-01-05 11:32:00,41.2,23.6,30.15,South,188,5.0,7.4,49,0.00,,,0.00,WSDL version 420,2013-01-05 16:32:00,
2013-01-05 11:38:00,41.2,23.0,30.15,East,83,3.8,10.7,48,0.00,,,0.00,WSDL version 420,2013-01-05 16:38:00,
2013-01-05 11:44:00,41.7,23.6,30.15,ENE,73,5.1,10.7,49,0.00,,,0.00,WSDL version 420,2013-01-05 16:44:00,
2013-01-05 11:50:00,42.1,23.8,30.15,South,180,4.1,6.5,48,0.00,,,0.00,WSDL version 420,2013-01-05 16:50:00,
2013-01-05 11:56:00,42.2,24.1,30.15,ESE,105,3.5,6.0,48,0.00,,,0.00,WSDL version 420,2013-01-05 16:56:00,
2013-01-05 12:02:00,41.8,23.4,30.15,SE,124,3.7,4.9,47,0.00,,,0.00,WSDL version 420,2013-01-05 17:02:00,
2013-01-05 12:08:00,41.2,22.9,30.12,NNE,23,2.5,4.9,48,0.00,,,0.00,WSDL version 420,2013-01-05 17:08:00,
2013-01-05 12:14:00,41.4,22.9,30.12,NE,45,2.9,4.0,47,0.00,,,0.00,WSDL version 420,2013-01-05 17:14:00,
2013-01-05 12:20:00,41.5,23.2,30.12,NNW,330,1.7,5.4,48,0.00,,,0.00,WSDL version 420,2013-01-05 17:20:00,
2013-01-05 12:26:00,41.4,23.2,30.12,East,90,2.3,5.4,48,0.00,,,0.00,WSDL version 420,2013-01-05 17:26:00,
2013-01-05 12:32:00,41.1,22.4,30.12,ESE,120,4.1,6.0,47,0.00,,,0.00,WSDL version 420,2013-01-05 17:32:00,
2013-01-05 12:38:00,41.5,23.3,30.12,SE,143,3.7,5.4,48,0.00,,,0.00,WSDL version 420,2013-01-05 17:38:00,
2013-01-05 12:44:00,41.5,22.8,30.12,SE,146,2.6,6.0,47,0.00,,,0.00,WSDL version 420,2013-01-05 17:44:00,
2013-01-05 12:50:00,41.5,22.8,30.12,SE,144,3.4,3.8,47,0.00,,,0.00,WSDL version 420,2013-01-05 17:50:00,
2013-01-05 12:56:00,41.1,22.3,30.12,SW,225,3.3,5.4,47,0.00,,,0.00,WSDL version 420,2013-01-05 17:56:00,
2013-01-05 13:02:00,40.8,21.9,30.12,WNW,285,3.3,4.9,46,0.00,,,0.00,WSDL version 420,2013-01-05 18:02:00,
2013-01-05 13:08:00,41.1,22.4,30.12,SSW,210,5.2,6.5,47,0.04,,,0.04,WSDL version 420,2013-01-05 18:08:00,
2013-01-05 13:14:00,40.0,21.9,30.12,SSW,195,1.3,6.5,48,0.04,,,0.04,WSDL version 420,2013-01-05 18:14:00,
2013-01-05 13:20:00,39.5,21.3,30.12,NE,45,3.1,6.5,47,0.04,,,0.04,WSDL version 420,2013-01-05 18:20:00,
2013-01-05 13:27:00,39.9,21.3,30.12,SE,135,2.5,6.5,47,0.04,,,0.04,WSDL version 420,2013-01-05 18:27:00,
2013-01-05 13:33:00,40.0,21.7,30.12,ENE,62,2.0,3.8,47,0.04,,,0.04,WSDL version 420,2013-01-05 18:33:00,
2013-01-05 13:39:00,40.6,22.1,30.09,East,90,2.4,3.6,47,0.04,,,0.04,WSDL version 420,2013-01-05 18:39:00,
2013-01-05 13:45:00,40.4,22.0,30.09,ENE,75,2.3,6.3,47,0.04,,,0.04,WSDL version 420,2013-01-05 18:45:00,
2013-01-05 13:51:00,40.1,21.7,30.12,South,188,0.8,5.8,47,0.04,,,0.04,WSDL version 420,2013-01-05 18:51:00,
2013-01-05 13:57:00,39.6,21.4,30.12,ENE,68,1.2,7.2,47,0.04,,,0.04,WSDL version 420,2013-01-05 18:57:00,
2013-01-05 14:03:00,39.9,21.1,30.12,North,8,0.0,5.6,47,0.00,,,0.04,WSDL version 420,2013-01-05 19:03:00,
2013-01-05 14:09:00,40.2,21.9,30.12,NNE,23,4.7,5.6,48,0.00,,,0.04,WSDL version 420,2013-01-05 19:09:00,
2013-01-05 14:15:00,39.8,21.2,30.12,SSE,150,1.1,5.4,47,0.00,,,0.04,WSDL version 420,2013-01-05 19:15:00,
2013-01-05 14:21:00,39.7,21.2,30.12,East,90,0.0,3.1,47,0.00,,,0.04,WSDL version 420,2013-01-05 19:21:00,
2013-01-05 14:27:00,39.5,21.3,30.12,SSE,158,4.0,4.0,47,0.00,,,0.04,WSDL version 420,2013-01-05 19:27:00,
2013-01-05 14:33:00,39.5,21.3,30.12,NNE,17,2.8,4.7,47,0.00,,,0.04,WSDL version 420,2013-01-05 19:33:00,
2013-01-05 14:39:00,39.3,21.1,30.12,NE,45,0.0,2.9,48,0.00,,,0.04,WSDL version 420,2013-01-05 19:39:00,
2013-01-05 14:45:00,38.9,20.6,30.12,SSW,208,2.2,4.0,47,0.00,,,0.04,WSDL version 420,2013-01-05 19:45:00,
2013-01-05 14:51:00,38.7,20.9,30.15,East,90,3.1,4.0,48,0.00,,,0.04,WSDL version 420,2013-01-05 19:51:00,
2013-01-05 14:57:00,38.7,20.8,30.15,NNE,23,2.3,3.1,48,0.00,,,0.04,WSDL version 420,2013-01-05 19:57:00,
2013-01-05 15:03:00,38.2,20.6,30.15,SSW,210,1.6,4.0,48,0.00,,,0.04,WSDL version 420,2013-01-05 20:03:00,
2013-01-05 15:09:00,38.0,20.4,30.15,West,263,0.5,2.5,49,0.00,,,0.04,WSDL version 420,2013-01-05 20:09:00,
2013-01-05 15:15:00,37.6,20.2,30.15,WSW,240,1.7,2.0,49,0.00,,,0.04,WSDL version 420,2013-01-05 20:15:00,
2013-01-05 15:21:00,37.5,20.1,30.15,South,180,0.5,2.0,49,0.00,,,0.04,WSDL version 420,2013-01-05 20:21:00,
2013-01-05 15:27:00,37.1,20.2,30.15,SE,129,0.0,1.6,50,0.00,,,0.04,WSDL version 420,2013-01-05 20:27:00,
2013-01-05 15:33:00,36.6,19.7,30.15,SE,135,0.7,2.2,50,0.00,,,0.04,WSDL version 420,2013-01-05 20:33:00,
2013-01-05 15:39:00,36.3,19.5,30.15,East,83,1.7,3.6,50,0.00,,,0.04,WSDL version 420,2013-01-05 20:39:00,
2013-01-05 15:45:00,36.2,19.4,30.15,ESE,105,1.0,4.3,50,0.00,,,0.04,WSDL version 420,2013-01-05 20:45:00,
2013-01-05 15:51:00,35.8,19.0,30.15,ENE,60,2.4,2.9,50,0.00,,,0.04,WSDL version 420,2013-01-05 20:51:00,
2013-01-05 15:58:00,35.4,19.1,30.15,NNW,338,0.0,2.5,51,0.00,,,0.04,WSDL version 420,2013-01-05 20:58:00,
2013-01-05 16:04:00,34.8,18.7,30.15,ESE,113,0.0,1.6,52,0.00,,,0.04,WSDL version 420,2013-01-05 21:04:00,
2013-01-05 16:10:00,34.5,18.7,30.15,East,90,0.0,0.0,52,0.00,,,0.04,WSDL version 420,2013-01-05 21:10:00,
2013-01-05 16:16:00,34.2,18.4,30.15,NE,45,0.0,0.0,52,0.00,,,0.04,WSDL version 420,2013-01-05 21:16:00,
2013-01-05 16:22:00,33.9,18.1,30.15,NNW,338,0.0,0.0,52,0.00,,,0.04,WSDL version 420,2013-01-05 21:22:00,
2013-01-05 16:28:00,33.7,18.2,30.15,NNW,338,0.0,0.0,53,0.00,,,0.04,WSDL version 420,2013-01-05 21:28:00,
2013-01-05 16:34:00,33.4,18.1,30.15,SW,225,0.0,0.0,53,0.00,,,0.04,WSDL version 420,2013-01-05 21:34:00,
2013-01-05 16:40:00,33.2,17.9,30.15,SW,225,0.0,0.0,53,0.00,,,0.04,WSDL version 420,2013-01-05 21:40:00,
2013-01-05 16:46:00,32.9,17.6,30.15,SW,225,0.0,0.0,53,0.00,,,0.04,WSDL version 420,2013-01-05 21:46:00,
2013-01-05 16:52:00,32.5,17.4,30.15,SW,225,0.0,0.0,54,0.00,,,0.04,WSDL version 420,2013-01-05 21:52:00,
2013-01-05 16:58:00,32.5,17.7,30.15,SW,225,0.0,0.0,54,0.00,,,0.04,WSDL version 420,2013-01-05 21:58:00,
2013-01-05 17:04:00,32.2,17.4,30.15,SW,225,0.0,0.0,54,0.00,,,0.04,WSDL version 420,2013-01-05 22:04:00,
2013-01-05 17:10:00,31.9,19.0,30.15,SW,225,0.0,0.0,55,0.00,,,0.04,WSDL version 420,2013-01-05 22:10:00,
2013-01-05 17:16:00,31.5,18.8,30.15,SW,225,0.0,0.0,55,0.00,,,0.04,WSDL version 420,2013-01-05 22:16:00,
2013-01-05 17:22:00,31.4,18.7,30.15,SW,225,0.0,0.0,55,0.00,,,0.04,WSDL version 420,2013-01-05 22:22:00,
2013-01-05 17:28:00,31.3,18.8,30.15,SW,225,0.0,0.0,56,0.00,,,0.04,WSDL version 420,2013-01-05 22:28:00,
2013-01-05 17:34:00,31.3,19.1,30.15,SW,225,0.0,0.0,57,0.00,,,0.04,WSDL version 420,2013-01-05 22:34:00,
2013-01-05 17:41:00,30.6,18.3,30.18,SW,225,0.0,0.0,56,0.00,,,0.04,WSDL version 420,2013-01-05 22:41:00,
2013-01-05 17:47:00,30.6,18.6,30.18,WNW,285,0.0,0.0,57,0.00,,,0.04,WSDL version 420,2013-01-05 22:47:00,
2013-01-05 17:53:00,30.6,18.6,30.18,NW,315,0.0,0.0,57,0.00,,,0.04,WSDL version 420,2013-01-05 22:53:00,
2013-01-05 17:59:00,30.2,18.4,30.18,NE,45,0.0,0.0,58,0.00,,,0.04,WSDL version 420,2013-01-05 22:59:00,
2013-01-05 18:05:00,30.2,18.9,30.18,NE,45,0.0,0.0,59,0.00,,,0.04,WSDL version 420,2013-01-05 23:05:00,
2013-01-05 18:11:00,29.8,18.5,30.18,NE,45,0.0,0.0,59,0.00,,,0.04,WSDL version 420,2013-01-05 23:11:00,
2013-01-05 18:17:00,30.0,18.8,30.18,NE,45,0.0,0.0,59,0.00,,,0.04,WSDL version 420,2013-01-05 23:17:00,
2013-01-05 18:23:00,29.8,18.9,30.18,NE,45,0.0,0.0,60,0.00,,,0.04,WSDL version 420,2013-01-05 23:23:00,
2013-01-05 18:29:00,30.1,19.4,30.18,NE,45,0.0,0.0,61,0.00,,,0.04,WSDL version 420,2013-01-05 23:29:00,
2013-01-05 18:35:00,29.3,18.5,30.18,NE,45,0.0,0.0,60,0.00,,,0.04,WSDL version 420,2013-01-05 23:35:00,
2013-01-05 18:41:00,29.3,18.5,30.18,NE,45,0.0,0.0,60,0.00,,,0.04,WSDL version 420,2013-01-05 23:41:00,
2013-01-05 18:47:00,29.0,18.2,30.18,WSW,248,0.0,0.0,60,0.00,,,0.04,WSDL version 420,2013-01-05 23:47:00,
2013-01-05 18:53:00,29.1,18.5,30.18,NW,315,0.0,0.0,61,0.00,,,0.04,WSDL version 420,2013-01-05 23:53:00,
2013-01-05 18:59:00,28.8,18.3,30.18,NNE,23,0.0,0.0,61,0.00,,,0.04,WSDL version 420,2013-01-05 23:59:00,
2013-01-05 19:05:00,28.5,18.4,30.18,NNE,23,0.0,0.0,62,0.00,,,0.04,WSDL version 420,2013-01-06 00:05:00,
2013-01-05 19:11:00,28.1,18.0,30.15,West,270,0.0,0.0,62,0.00,,,0.04,WSDL version 420,2013-01-06 00:11:00,
2013-01-05 19:17:00,27.9,18.1,30.15,WNW,293,0.0,0.0,63,0.00,,,0.04,WSDL version 420,2013-01-06 00:17:00,
2013-01-05 19:23:00,27.7,17.6,30.15,NNE,23,0.0,0.0,63,0.00,,,0.04,WSDL version 420,2013-01-06 00:23:00,
2013-01-05 19:29:00,27.4,17.3,30.15,WNW,293,0.0,0.0,61,0.00,,,0.04,WSDL version 420,2013-01-06 00:29:00,
2013-01-05 19:35:00,27.3,17.1,30.15,West,270,0.0,0.0,61,0.00,,,0.04,WSDL version 420,2013-01-06 00:35:00,
2013-01-05 19:41:00,27.5,17.3,30.18,West,270,0.0,0.0,62,0.00,,,0.04,WSDL version 420,2013-01-06 00:41:00,
2013-01-05 19:47:00,27.3,17.5,30.18,West,270,0.0,0.0,63,0.00,,,0.04,WSDL version 420,2013-01-06 00:47:00,
2013-01-05 19:53:00,27.0,17.5,30.15,West,270,0.0,0.0,65,0.00,,,0.04,WSDL version 420,2013-01-06 00:53:00,
2013-01-05 19:59:00,26.9,17.5,30.15,West,270,0.0,0.0,64,0.00,,,0.04,WSDL version 420,2013-01-06 00:59:00,
2013-01-05 20:05:00,26.9,17.8,30.15,West,270,0.0,0.0,65,0.00,,,0.04,WSDL version 420,2013-01-06 01:05:00,
2013-01-05 20:12:00,26.7,17.6,30.15,West,270,0.0,0.0,65,0.00,,,0.04,WSDL version 420,2013-01-06 01:12:00,
2013-01-05 20:18:00,26.7,17.8,30.15,West,270,0.0,0.0,65,0.00,,,0.04,WSDL version 420,2013-01-06 01:18:00,
2013-01-05 20:24:00,26.5,17.5,30.18,East,90,0.0,0.0,65,0.00,,,0.04,WSDL version 420,2013-01-06 01:24:00,
2013-01-05 20:30:00,26.0,16.8,30.18,NE,36,0.0,0.0,65,0.00,,,0.04,WSDL version 420,2013-01-06 01:30:00,
2013-01-05 20:36:00,26.1,17.4,30.15,North,360,0.0,0.0,66,0.00,,,0.04,WSDL version 420,2013-01-06 01:36:00,
2013-01-05 20:42:00,26.1,17.7,30.15,North,360,0.0,0.0,67,0.00,,,0.04,WSDL version 420,2013-01-06 01:42:00,
2013-01-05 20:48:00,25.5,17.1,30.15,North,360,0.0,0.0,67,0.00,,,0.04,WSDL version 420,2013-01-06 01:48:00,
2013-01-05 20:54:00,25.4,16.9,30.15,NE,38,0.0,0.0,66,0.00,,,0.04,WSDL version 420,2013-01-06 01:54:00,
2013-01-05 21:00:00,26.0,17.9,30.15,NNW,338,0.0,0.0,68,0.00,,,0.04,WSDL version 420,2013-01-06 02:00:00,
2013-01-05 21:06:00,26.1,18.2,30.15,West,270,0.0,0.0,69,0.00,,,0.04,WSDL version 420,2013-01-06 02:06:00,
2013-01-05 21:12:00,25.5,17.1,30.15,North,360,0.0,0.0,67,0.00,,,0.04,WSDL version 420,2013-01-06 02:12:00,
2013-01-05 21:18:00,25.3,17.2,30.15,North,11,0.0,0.0,68,0.00,,,0.04,WSDL version 420,2013-01-06 02:18:00,
2013-01-05 21:24:00,25.0,16.8,30.15,North,353,0.0,0.0,67,0.00,,,0.04,WSDL version 420,2013-01-06 02:24:00,
2013-01-05 21:30:00,25.0,17.0,30.15,WNW,293,0.0,0.0,69,0.00,,,0.04,WSDL version 420,2013-01-06 02:30:00,
2013-01-05 21:36:00,24.9,17.2,30.15,NE,45,0.0,0.0,69,0.00,,,0.04,WSDL version 420,2013-01-06 02:36:00,
2013-01-05 21:42:00,24.6,16.5,30.15,NNW,338,0.0,0.0,67,0.00,,,0.04,WSDL version 420,2013-01-06 02:42:00,
2013-01-05 21:48:00,24.6,16.7,30.15,NW,308,0.0,0.0,68,0.00,,,0.04,WSDL version 420,2013-01-06 02:48:00,
2013-01-05 21:54:00,24.4,16.7,30.15,NE,45,0.0,0.0,68,0.00,,,0.04,WSDL version 420,2013-01-06 02:54:00,
2013-01-05 22:00:00,24.6,17.1,30.15,NNW,338,0.0,0.0,71,0.00,,,0.04,WSDL version 420,2013-01-06 03:00:00,
2013-01-05 22:06:00,25.2,18.0,30.15,NNW,338,0.0,0.0,71,0.00,,,0.04,WSDL version 420,2013-01-06 03:06:00,
2013-01-05 22:12:00,25.0,17.6,30.15,NNE,23,0.0,0.0,71,0.00,,,0.04,WSDL version 420,2013-01-06 03:12:00,
2013-01-05 22:18:00,25.0,18.2,30.15,ENE,68,0.9,2.5,72,0.00,,,0.04,WSDL version 420,2013-01-06 03:18:00,
2013-01-05 22:25:00,24.9,17.8,30.15,North,360,0.0,2.5,71,0.00,,,0.04,WSDL version 420,2013-01-06 03:25:00,
2013-01-05 22:31:00,24.7,17.2,30.15,West,278,0.0,0.0,69,0.00,,,0.04,WSDL version 420,2013-01-06 03:31:00,
2013-01-05 22:37:00,24.6,17.3,30.15,SE,135,0.0,0.0,71,0.00,,,0.04,WSDL version 420,2013-01-06 03:37:00,
2013-01-05 22:43:00,24.6,17.3,30.15,WSW,248,0.0,0.0,71,0.00,,,0.04,WSDL version 420,2013-01-06 03:43:00,
2013-01-05 22:49:00,24.9,17.7,30.15,WSW,248,0.0,0.0,71,0.00,,,0.04,WSDL version 420,2013-01-06 03:49:00,
2013-01-05 22:55:00,25.2,18.1,30.12,WSW,248,0.0,0.0,72,0.00,,,0.04,WSDL version 420,2013-01-06 03:55:00,
2013-01-05 23:01:00,25.3,18.3,30.12,WSW,248,0.0,0.0,71,0.00,,,0.04,WSDL version 420,2013-01-06 04:01:00,
2013-01-05 23:07:00,25.4,18.3,30.12,WNW,293,2.5,2.7,71,0.00,,,0.04,WSDL version 420,2013-01-06 04:07:00,
2013-01-05 23:13:00,25.5,18.3,30.12,WNW,293,0.0,2.7,71,0.00,,,0.04,WSDL version 420,2013-01-06 04:13:00,
2013-01-05 23:19:00,25.5,18.3,30.12,WNW,293,0.0,0.0,71,0.00,,,0.04,WSDL version 420,2013-01-06 04:19:00,
2013-01-05 23:25:00,25.7,18.5,30.12,WNW,293,0.0,0.0,71,0.00,,,0.04,WSDL version 420,2013-01-06 04:25:00,
2013-01-05 23:31:00,25.9,18.8,30.12,WNW,293,0.0,0.0,71,0.00,,,0.04,WSDL version 420,2013-01-06 04:31:00,
2013-01-05 23:37:00,25.7,18.6,30.09,WNW,293,0.0,0.0,72,0.00,,,0.04,WSDL version 420,2013-01-06 04:37:00,
2013-01-05 23:43:00,25.6,18.5,30.09,WNW,293,0.0,0.0,70,0.00,,,0.04,WSDL version 420,2013-01-06 04:43:00,
2013-01-05 23:49:00,26.1,19.0,30.09,WNW,293,0.0,0.0,72,0.00,,,0.04,WSDL version 420,2013-01-06 04:49:00,
2013-01-05 23:55:00,26.0,19.1,30.12,WNW,293,0.0,0.0,72,0.00,,,0.04,WSDL version 420,2013-01-06 04:55:00,